Terminal Aerodrome Forecast
Issued by NWS

Home | Current Version | Previous Version | Text Only | Print | Product List | Glossary On
Versions: 1 2 3 4 5 6 7 8 9 10 11 12 13 14 15 16 17 18 19 20 21 22 23 24 25 26 27 28 29 30 31 32 33 34 35 36 37 38 39 40 41 42 43 44 45 46 47 48 49 50
000
FTUS43 KMKX 210520
TAFENW
TAF
KENW 210520Z 2106/2206 20005KT P6SM OVC035
     FM210900 19005KT P6SM OVC020
     FM211200 18006KT 3SM -FZDZ OVC015
     FM211500 18007KT 3SM -DZ BR OVC015
     FM211800 18011KT P6SM OVC010
     FM211900 18010G17KT P6SM OVC015
     FM220400 18011KT P6SM OVC025=

USA.gov is the U.S. government's official web portal to all federal, state and local government web resources and services.